Theta_e
311 311 311 311 310 310 312 314 315 315 316 317 317 315 313 312 311 312 314 314 320 320 323 327 331 329 333 341 342 343 345 349 347 346 345 343 345 346 346 345 344 345 342 341 341
309 309 310 310 310 310 312 315 316 316 317 316 316 314 312 311 311 312 314 315 319 319 321 327 328 328 335 344 341 342 343 347 344 342 343 343 345 346 346 343 345 344 342 341 341
311 310 310 310 309 310 313 315 316 317 315 314 313 311 314 319 324 319 314 315 318 318 319 325 328 326 335 343 345 345 345 344 343 342 342 344 345 343 346 343 344 344 342 342 342
312 311 311 310 309 310 314 316 316 317 312 311 315 319 323 325 325 326 325 317 317 318 318 325 327 326 334 340 346 347 348 346 342 346 343 343 344 344 345 343 342 342 341 340 342
314 312 311 310 309 311 315 316 317 318 318 318 320 323 324 328 326 325 325 325 322 318 317 325 326 324 340 344 344 341 347 346 345 344 342 343 345 344 344 345 342 343 342 340 341
316 314 312 311 310 312 315 316 318 319 319 319 321 322 324 324 325 323 316 323 321 321 317 326 324 323 325 340 339 341 348 346 345 344 345 344 344 346 345 343 343 344 342 341 341
317 316 314 312 311 313 315 318 319 319 319 320 321 322 325 325 324 322 314 316 320 319 320 324 322 321 333 340 343 347 349 348 347 344 344 343 345 348 345 344 345 344 342 342 342
315 316 315 312 311 314 318 320 320 320 320 320 320 322 328 328 324 323 319 315 314 315 321 321 318 320 339 344 342 347 346 349 349 347 345 344 346 343 344 345 345 345 344 344 343
318 315 316 313 312 316 320 322 322 321 320 320 321 322 324 327 323 322 323 320 319 319 319 318 318 331 341 339 343 347 351 347 350 346 346 346 347 341 344 344 345 344 344 344 343
316 317 315 315 312 317 321 323 324 325 325 324 324 324 325 326 323 323 322 323 322 318 317 317 318 315 320 332 343 345 348 347 348 348 347 347 348 341 343 345 343 343 342 342 343
319 316 317 316 313 318 321 323 323 323 321 322 324 325 325 326 324 324 324 323 322 317 314 314 313 316 320 323 329 341 345 346 344 346 345 349 346 345 341 344 343 341 341 341 342
320 319 317 316 313 317 320 322 322 319 319 324 324 325 325 323 323 323 323 322 319 317 314 312 313 314 318 320 322 323 326 340 346 344 344 347 348 345 341 341 343 342 342 341 341
319 320 318 317 314 316 319 322 320 319 320 324 325 325 326 326 325 323 323 320 317 316 315 313 314 313 315 317 318 318 334 341 343 347 346 347 347 348 344 340 343 342 342 342 342
322 319 319 317 315 317 320 323 321 322 318 322 325 327 326 325 324 324 322 319 316 316 313 315 315 316 316 316 315 317 318 332 346 342 342 344 345 341 344 341 340 342 342 343 342
324 321 319 319 318 316 318 321 322 322 328 326 325 325 325 324 323 323 323 321 319 319 317 320 318 316 316 316 316 317 335 340 339 337 334 339 342 338 343 345 342 340 342 343 343
324 322 321 318 319 317 316 320 323 321 328 327 324 322 322 322 322 321 322 321 321 320 319 319 321 317 318 319 317 330 329 327 327 333 340 335 339 335 345 341 341 342 342 342 343
323 324 322 318 319 316 317 323 318 323 323 328 324 321 321 322 322 320 320 319 319 320 319 319 320 319 322 321 321 324 330 330 336 337 340 331 334 333 338 338 339 340 342 342 342
323 323 322 319 318 318 318 318 323 322 323 323 323 321 321 320 321 319 319 318 317 317 316 319 322 320 320 320 320 322 325 322 331 335 333 330 336 337 336 337 339 339 341 343 341
322 322 319 320 319 317 321 319 318 320 323 323 320 322 322 322 322 320 318 317 318 316 320 319 322 319 320 320 320 320 321 318 320 321 323 326 335 336 335 334 336 337 341 341 340
321 319 320 319 318 316 317 318 319 319 322 322 323 321 321 321 320 318 318 318 320 316 318 320 323 324 328 324 324 319 318 322 321 329 331 333 338 336 337 334 335 335 334 338 341
320 317 318 318 316 317 318 318 319 322 323 323 322 323 321 320 319 318 320 320 319 318 319 318 320 324 326 325 325 325 331 326 324 324 330 333 332 330 334 333 334 333 333 335 337
316 312 320 315 312 310 314 318 321 322 321 321 321 321 320 321 321 321 320 321 323 319 321 320 319 327 330 326 326 326 327 325 323 330 327 328 331 333 331 332 333 332 333 339 341
314 316 322 317 314 312 315 319 319 319 319 322 322 321 320 322 322 320 324 324 323 322 321 320 322 328 328 322 325 328 326 323 321 324 331 330 327 330 333 331 330 332 334 336 339
313 316 323 322 321 320 321 322 322 323 322 322 322 321 320 320 316 320 326 325 325 325 323 321 317 323 326 323 323 330 328 327 325 327 326 328 330 330 334 333 332 335 338 336 336
314 316 318 318 319 319 320 320 322 324 322 320 321 321 321 321 319 318 320 324 324 327 318 317 320 321 320 321 326 327 328 327 327 325 330 328 329 330 330 333 334 332 336 338 333
319 318 318 316 316 318 316 319 324 323 322 321 321 322 321 319 319 320 319 322 323 324 320 315 317 320 327 324 325 328 327 327 329 327 330 332 332 327 329 331 333 332 338 339 335
313 313 317 313 315 317 314 321 322 320 323 323 322 322 322 322 323 319 320 319 321 320 319 319 318 320 325 322 327 328 328 327 328 328 330 334 331 330 330 332 333 336 339 341 340
Wind_Speed
12 11 11 10 10 10 9 10 11 13 13 11 8 6 4 3 4 7 8 6 11 13 12 11 9 3 2 3 5 3 4 2 2 4 3 3 3 2 2 17 4 5 10 23 24
13 12 12 11 10 9 9 10 12 14 14 10 6 4 3 1 2 4 6 11 14 10 12 10 9 5 1 1 3 3 3 5 6 5 6 9 8 3 2 14 6 10 18 26 24
15 14 13 12 10 9 9 10 13 14 12 7 4 4 4 3 6 5 7 13 13 11 11 11 8 3 2 1 1 1 2 4 6 11 8 5 1 5 3 4 10 24 30 28 26
16 15 14 13 11 8 8 10 12 13 10 8 8 7 5 3 4 5 5 8 10 10 12 12 7 3 2 1 2 1 2 3 10 11 6 2 1 6 7 1 12 28 31 28 27
18 17 15 14 11 8 7 8 10 10 9 8 8 8 5 2 3 2 2 7 10 10 12 12 7 2 2 3 3 2 3 6 11 13 10 8 2 3 9 6 15 28 30 27 25
20 19 17 15 11 8 7 8 8 7 6 7 8 9 4 2 3 4 3 10 13 12 14 13 3 1 1 4 3 2 9 11 7 5 6 6 2 5 5 15 25 31 31 28 26
21 20 19 16 12 8 7 7 7 6 5 6 8 10 2 1 2 3 4 7 12 13 16 7 0 2 4 5 7 9 6 6 7 9 4 11 2 5 2 19 27 31 32 30 28
22 21 20 16 12 8 7 7 6 5 5 7 9 9 2 2 2 1 6 10 11 11 9 3 4 0 3 13 3 2 3 3 3 8 7 7 4 6 9 20 24 28 31 30 30
22 20 20 17 11 8 7 8 8 6 6 8 9 6 2 3 4 3 3 5 7 7 5 3 1 4 7 4 3 3 1 2 3 8 4 5 4 5 16 20 22 23 27 29 29
24 21 19 17 11 7 9 11 9 6 6 9 4 1 1 3 6 6 5 5 2 4 3 2 3 4 3 3 3 4 3 3 4 6 5 5 7 5 14 23 20 26 27 29 32
25 22 19 17 11 6 8 7 8 3 15 10 7 6 12 2 9 7 5 5 6 3 2 3 4 5 10 6 2 3 2 4 3 8 5 7 5 5 8 10 18 22 26 32 34
25 23 20 16 11 6 4 4 6 9 9 14 15 14 12 5 5 10 9 5 4 3 2 6 4 6 6 4 2 0 3 4 2 7 4 7 11 5 10 10 22 27 29 32 34
25 24 21 16 9 5 3 2 8 17 3 7 4 6 5 12 5 11 12 6 4 4 4 6 5 7 6 4 5 3 4 4 3 5 3 2 3 4 2 5 17 23 30 30 39
26 25 23 17 7 5 2 1 12 10 4 6 3 4 9 6 3 10 16 6 2 9 7 5 4 4 5 5 6 3 8 8 10 4 3 3 3 2 2 5 9 20 23 28 31
25 26 23 18 13 8 4 6 10 2 3 2 3 3 9 7 3 6 18 14 4 5 5 7 4 4 3 8 6 10 3 5 4 3 3 1 3 3 2 2 7 12 21 25 31
26 27 25 20 14 7 6 3 2 5 5 2 6 4 5 1 2 4 6 7 2 3 2 7 2 6 8 2 6 5 7 8 4 3 3 3 4 4 2 4 4 7 23 22 29
27 25 27 19 10 3 6 3 5 3 4 1 3 3 4 4 4 4 5 3 4 3 2 3 3 3 3 5 4 5 7 3 4 4 5 2 3 7 4 6 6 9 17 29 32
29 25 25 14 10 10 8 4 4 4 5 4 2 1 6 5 3 4 4 3 5 3 2 2 5 3 1 6 7 2 7 6 5 4 4 2 4 5 4 5 8 13 13 20 34
30 26 8 8 7 15 11 2 7 6 3 5 3 3 3 3 3 4 6 5 7 10 7 4 4 3 1 3 6 4 3 3 7 3 3 2 4 5 3 4 7 8 7 7 22
30 21 11 8 13 20 4 5 4 3 4 4 2 1 6 4 5 7 6 4 5 11 4 4 1 3 2 5 8 4 4 3 3 4 3 4 4 5 6 7 4 6 7 7 9
22 8 13 8 17 10 4 6 4 7 3 3 1 3 3 4 6 5 6 5 6 5 4 4 4 4 1 3 6 2 1 7 5 3 5 2 6 4 7 6 5 7 9 9 8
12 3 6 8 3 1 2 5 2 3 2 4 3 6 4 2 4 4 10 8 11 14 10 5 5 2 1 1 2 2 5 5 5 3 2 4 6 2 6 8 7 10 8 5 7
17 6 3 6 1 2 6 4 3 3 6 3 2 6 3 1 4 6 6 4 14 5 9 8 2 3 6 6 2 1 2 5 5 3 5 5 5 3 5 5 5 5 4 4 9
7 4 3 4 5 2 4 4 3 4 3 4 4 4 2 3 5 5 3 2 9 4 11 8 3 7 7 6 4 4 4 3 4 4 5 5 4 5 6 7 6 4 1 3 7
4 2 2 3 3 3 2 3 3 5 4 4 2 5 2 4 3 5 4 1 5 10 5 5 4 3 3 3 2 4 6 7 5 5 5 4 8 5 8 12 16 8 2 0 10
4 4 5 5 7 3 1 1 1 5 2 5 3 6 4 6 8 6 7 4 6 2 3 2 3 4 1 2 7 4 5 7 1 2 3 2 5 5 2 11 12 13 7 6 2
4 4 3 4 3 1 3 1 2 7 8 12 5 5 6 6 14 24 22 13 10 10 5 4 6 3 4 1 5 2 6 6 4 4 6 5 7 5 3 5 7 11 11 9 7
Wind_Direction
1 357 355 353 349 347 348 351 352 351 345 337 327 317 307 278 232 219 218 170 160 146 156 159 149 136 60 77 62 93 77 122 169 140 163 214 262 256 242 151 137 194 166 160 158
2 359 355 351 347 345 347 347 349 348 345 339 334 331 337 299 234 219 188 168 156 149 166 162 153 155 83 71 45 58 94 172 182 139 167 194 218 294 144 151 80 114 148 158 160
6 2 358 352 347 344 345 348 350 352 353 3 23 41 55 86 98 49 168 172 170 152 156 169 159 163 113 109 51 334 121 148 158 168 175 164 87 345 287 185 180 154 155 165 164
11 5 1 355 349 346 347 350 356 4 19 56 64 47 43 80 112 102 97 163 177 171 163 169 184 159 116 156 129 64 49 149 145 149 121 107 91 350 286 241 198 167 162 167 172
12 9 4 359 353 349 348 355 2 14 35 44 37 25 18 54 80 34 253 201 193 179 171 161 182 166 153 138 103 78 47 99 131 139 142 198 147 278 293 236 179 169 166 175 178
10 9 6 4 0 354 348 353 3 8 15 21 17 6 25 51 28 348 247 205 195 184 168 167 158 284 105 115 21 106 101 109 124 156 147 142 238 329 85 176 172 176 176 182 186
5 5 4 5 4 354 346 346 356 359 356 357 351 347 316 38 3 26 105 166 175 175 171 168 190 25 138 115 141 131 102 109 124 150 136 150 253 234 119 174 164 176 184 188 192
359 359 359 1 2 354 343 346 343 332 327 329 334 334 295 235 253 162 87 120 141 158 156 195 309 5 110 125 85 143 125 123 173 156 159 172 271 212 184 164 163 179 189 197 200
357 355 354 354 356 350 339 336 322 306 304 313 316 328 354 324 158 180 168 112 133 153 169 245 20 102 117 103 43 8 310 139 176 196 135 195 263 156 174 186 178 186 195 201 207
354 353 350 346 345 342 337 345 331 304 281 306 300 338 117 24 162 151 162 178 160 168 157 164 114 75 45 79 193 210 250 164 179 193 167 194 264 134 187 191 183 187 200 205 211
350 351 349 340 335 323 349 357 354 347 309 255 253 271 293 134 189 177 204 181 164 156 137 41 84 195 204 187 137 167 214 267 135 167 134 210 275 214 188 203 185 187 196 207 216
346 347 347 339 332 293 2 36 52 344 303 293 268 258 253 188 165 202 197 156 158 152 85 21 240 213 169 191 165 220 301 292 81 145 145 174 231 225 183 207 205 185 196 203 209
344 343 343 341 328 264 336 37 340 332 281 293 251 239 223 201 210 195 191 176 130 132 169 162 241 143 163 176 162 195 198 219 170 143 249 117 289 188 225 223 213 212 214 203 208
342 340 339 344 327 293 291 287 334 328 50 276 246 215 172 168 238 200 191 167 162 191 164 229 261 197 173 207 150 261 206 218 136 120 172 135 268 24 251 225 221 216 210 204 203
338 336 334 332 312 300 249 304 329 13 3 205 194 183 174 163 152 186 192 202 197 184 120 254 190 178 179 217 154 228 140 98 105 113 91 99 69 261 10 225 260 248 220 214 209
335 331 327 322 311 282 239 261 307 40 256 301 161 164 121 132 144 121 162 191 240 179 228 240 251 175 206 127 180 138 75 51 62 83 32 242 135 278 268 241 273 264 244 226 215
331 327 320 311 295 223 176 166 45 159 318 247 224 165 159 197 194 165 158 173 191 112 298 317 216 271 163 89 44 82 69 9 8 18 222 332 76 237 239 237 257 275 274 238 223
329 327 319 306 253 209 183 68 182 235 249 306 20 77 182 159 228 161 131 212 222 130 119 144 329 183 208 163 171 158 146 150 185 193 244 43 226 274 211 259 286 297 300 237 225
332 332 341 329 213 178 175 127 204 208 247 331 6 148 254 209 187 152 196 206 213 174 174 139 283 317 331 125 118 175 153 162 101 359 67 249 273 292 206 283 291 310 325 224 225
337 336 338 324 177 172 104 228 224 237 329 26 73 350 204 223 172 169 182 215 221 185 179 182 12 7 14 80 42 114 144 88 22 133 224 289 272 238 211 243 291 315 313 307 238
340 347 7 107 145 167 168 220 238 259 324 66 153 302 306 333 196 197 202 260 205 161 125 122 93 296 81 35 165 87 66 53 106 106 155 201 264 217 194 192 230 282 318 305 270
352 360 23 149 68 32 171 196 231 278 289 293 160 214 211 317 299 236 203 219 187 145 162 180 134 144 147 311 320 134 144 136 119 216 102 146 272 249 184 189 216 261 280 322 304
338 306 21 197 111 314 306 291 246 230 243 211 249 224 176 270 311 210 221 222 160 139 159 181 43 65 356 356 360 61 109 100 106 94 186 141 262 178 189 221 251 281 245 336 8
342 353 353 67 73 76 9 287 281 308 274 272 234 219 220 263 227 281 253 171 170 131 137 117 114 149 180 199 153 158 155 155 110 119 167 225 262 229 218 232 229 202 254 341 21
346 352 12 319 345 351 305 298 307 357 323 305 333 95 322 276 289 221 252 119 38 136 79 112 139 149 180 176 175 184 170 179 185 170 156 248 206 266 203 209 220 211 192 60 54
339 0 344 289 302 321 284 204 46 336 276 287 189 323 231 224 210 231 189 182 180 209 116 4 146 155 105 30 171 187 198 183 173 146 306 200 259 218 221 193 209 226 255 265 182
332 315 303 291 324 0 234 347 317 331 273 257 348 338 292 232 297 264 256 275 192 157 145 112 133 108 200 23 124 18 207 186 189 186 157 185 228 160 125 166 216 269 266 251 221